Year,Month,Day,Hour,Minute,Value (Times are PST for temperature in C)
2009,05,23,00,00,11.70
2009,05,23,00,01,11.70
2009,05,23,00,02,11.60
2009,05,23,00,03,11.60
2009,05,23,00,04,11.60
2009,05,23,00,05,11.60
2009,05,23,00,06,11.50
2009,05,23,00,07,11.40
2009,05,23,00,08,11.40
2009,05,23,00,09,11.40
2009,05,23,00,10,11.30
2009,05,23,00,11,11.30
2009,05,23,00,12,11.30
2009,05,23,00,13,11.20
2009,05,23,00,14,11.20
2009,05,23,00,15,11.10
2009,05,23,00,16,11.10
2009,05,23,00,17,11.10
2009,05,23,00,18,11.10
2009,05,23,00,19,11.00
2009,05,23,00,20,10.90
2009,05,23,00,21,10.90
2009,05,23,00,22,10.90
2009,05,23,00,23,10.90
2009,05,23,00,24,10.90
2009,05,23,00,25,10.90
2009,05,23,00,26,10.80
2009,05,23,00,27,10.80
2009,05,23,00,28,10.80
2009,05,23,00,29,10.80
2009,05,23,00,30,10.70
2009,05,23,00,31,10.70
2009,05,23,00,32,10.70
2009,05,23,00,33,10.60
2009,05,23,00,34,10.60
2009,05,23,00,35,10.60
2009,05,23,00,36,10.60
2009,05,23,00,37,10.60
2009,05,23,00,38,10.60
2009,05,23,00,39,10.50
2009,05,23,00,40,10.40
2009,05,23,00,41,10.40
2009,05,23,00,42,10.40
2009,05,23,00,43,10.40
2009,05,23,00,44,10.40
2009,05,23,00,45,10.30
2009,05,23,00,46,10.20
2009,05,23,00,47,10.20
2009,05,23,00,48,10.10
2009,05,23,00,49,10.10
2009,05,23,00,50,10.10
2009,05,23,00,51,10.10
2009,05,23,00,52,10.10
2009,05,23,00,53,10.10
2009,05,23,00,54,10.10
2009,05,23,00,55,9.90
2009,05,23,00,56,9.90
2009,05,23,00,57,9.90
2009,05,23,00,58,9.90
2009,05,23,00,59,9.90
2009,05,23,01,00,9.90
2009,05,23,01,01,9.90
2009,05,23,01,02,9.80
2009,05,23,01,03,9.80
2009,05,23,01,04,9.80
2009,05,23,01,05,9.80
2009,05,23,01,06,9.80
2009,05,23,01,07,9.80
2009,05,23,01,08,9.70
2009,05,23,01,09,9.70
2009,05,23,01,10,9.70
2009,05,23,01,11,9.70
2009,05,23,01,12,9.70
2009,05,23,01,13,9.70
2009,05,23,01,14,9.70
2009,05,23,01,15,9.70
2009,05,23,01,16,9.70
2009,05,23,01,17,9.70
2009,05,23,01,18,9.70
2009,05,23,01,19,9.70
2009,05,23,01,20,9.60
2009,05,23,01,21,9.60
2009,05,23,01,22,9.60
2009,05,23,01,23,9.60
2009,05,23,01,24,9.60
2009,05,23,01,25,9.60
2009,05,23,01,26,9.50
2009,05,23,01,27,9.50
2009,05,23,01,28,9.50
2009,05,23,01,29,9.50
2009,05,23,01,30,9.50
2009,05,23,01,31,9.50
2009,05,23,01,32,9.50
2009,05,23,01,33,9.50
2009,05,23,01,34,9.50
2009,05,23,01,35,9.50
2009,05,23,01,36,9.50
2009,05,23,01,37,9.50
2009,05,23,01,38,9.40
2009,05,23,01,39,9.40
2009,05,23,01,40,9.40
2009,05,23,01,41,9.40
2009,05,23,01,42,9.40
2009,05,23,01,43,9.40
2009,05,23,01,44,9.40
2009,05,23,01,45,9.30
2009,05,23,01,46,9.30
2009,05,23,01,47,9.30
2009,05,23,01,48,9.30
2009,05,23,01,49,9.20
2009,05,23,01,50,9.20
2009,05,23,01,51,9.20
2009,05,23,01,52,9.20
2009,05,23,01,53,9.20
2009,05,23,01,54,9.20
2009,05,23,01,55,9.20
2009,05,23,01,56,9.20
2009,05,23,01,57,9.20
2009,05,23,01,58,9.20
2009,05,23,01,59,9.20
2009,05,23,02,00,9.20
2009,05,23,02,01,9.20
2009,05,23,02,02,9.20
2009,05,23,02,03,9.20
2009,05,23,02,04,9.20
2009,05,23,02,05,9.10
2009,05,23,02,06,9.10
2009,05,23,02,07,9.10
2009,05,23,02,08,9.10
2009,05,23,02,09,9.10
2009,05,23,02,10,9.10
2009,05,23,02,11,9.10
2009,05,23,02,12,9.00
2009,05,23,02,13,9.00
2009,05,23,02,14,9.00
2009,05,23,02,15,9.00
2009,05,23,02,16,9.00
2009,05,23,02,17,9.00
2009,05,23,02,18,9.10
2009,05,23,02,19,9.10
2009,05,23,02,20,9.10
2009,05,23,02,21,9.10
2009,05,23,02,22,9.10
2009,05,23,02,23,9.10
2009,05,23,02,24,9.10
2009,05,23,02,25,9.10
2009,05,23,02,26,9.10
2009,05,23,02,27,9.10
2009,05,23,02,28,9.00
2009,05,23,02,29,9.00
2009,05,23,02,30,9.00
2009,05,23,02,31,9.00
2009,05,23,02,32,9.00
2009,05,23,02,33,8.90
2009,05,23,02,34,8.90
2009,05,23,02,35,8.90
2009,05,23,02,36,8.90
2009,05,23,02,37,8.80
2009,05,23,02,38,8.80
2009,05,23,02,39,8.80
2009,05,23,02,40,8.70
2009,05,23,02,41,8.70
2009,05,23,02,42,8.70
2009,05,23,02,43,8.70
2009,05,23,02,44,8.70
2009,05,23,02,45,8.70
2009,05,23,02,46,8.70
2009,05,23,02,47,8.70
2009,05,23,02,48,8.70
2009,05,23,02,49,8.70
2009,05,23,02,50,8.70
2009,05,23,02,51,8.60
2009,05,23,02,52,8.60
2009,05,23,02,53,8.60
2009,05,23,02,54,8.60
2009,05,23,02,55,8.60
2009,05,23,02,56,8.60
2009,05,23,02,57,8.60
2009,05,23,02,58,8.60
2009,05,23,02,59,8.60
2009,05,23,03,00,8.60
2009,05,23,03,01,8.60
2009,05,23,03,02,8.60
2009,05,23,03,03,8.60
2009,05,23,03,04,8.60
2009,05,23,03,05,8.60
2009,05,23,03,06,8.50
2009,05,23,03,07,8.50
2009,05,23,03,08,8.50
2009,05,23,03,09,8.50
2009,05,23,03,10,8.50
2009,05,23,03,11,8.50
2009,05,23,03,12,8.50
2009,05,23,03,13,8.50
2009,05,23,03,14,8.50
2009,05,23,03,15,8.50
2009,05,23,03,16,8.50
2009,05,23,03,17,8.50
2009,05,23,03,18,8.50
2009,05,23,03,19,8.50
2009,05,23,03,20,8.50
2009,05,23,03,21,8.50
2009,05,23,03,22,8.50
2009,05,23,03,23,8.50
2009,05,23,03,24,8.50
2009,05,23,03,25,8.50
2009,05,23,03,26,8.50
2009,05,23,03,27,8.50
2009,05,23,03,28,8.50
2009,05,23,03,29,8.50
2009,05,23,03,30,8.50
2009,05,23,03,31,8.50
2009,05,23,03,32,8.50
2009,05,23,03,33,8.50
2009,05,23,03,34,8.50
2009,05,23,03,35,8.50
2009,05,23,03,36,8.50
2009,05,23,03,37,8.50
2009,05,23,03,38,8.50
2009,05,23,03,39,8.50
2009,05,23,03,40,8.40
2009,05,23,03,41,8.40
2009,05,23,03,42,8.40
2009,05,23,03,43,8.40
2009,05,23,03,44,8.40
2009,05,23,03,45,8.40
2009,05,23,03,46,8.40
2009,05,23,03,47,8.40
2009,05,23,03,48,8.40
2009,05,23,03,49,8.40
2009,05,23,03,50,8.40
2009,05,23,03,51,8.40
2009,05,23,03,52,8.40
2009,05,23,03,53,8.40
2009,05,23,03,54,8.40
2009,05,23,03,55,8.30
2009,05,23,03,56,8.30
2009,05,23,03,57,8.30
2009,05,23,03,58,8.30
2009,05,23,03,59,8.30
2009,05,23,04,00,8.30
2009,05,23,04,01,8.30
2009,05,23,04,02,8.30
2009,05,23,04,03,8.30
2009,05,23,04,04,8.30
2009,05,23,04,05,8.30
2009,05,23,04,06,8.30
2009,05,23,04,07,8.30
2009,05,23,04,08,8.30
2009,05,23,04,09,8.30
2009,05,23,04,10,8.30
2009,05,23,04,11,8.30
2009,05,23,04,12,8.30
2009,05,23,04,13,8.30
2009,05,23,04,14,8.30
2009,05,23,04,15,8.30
2009,05,23,04,16,8.30
2009,05,23,04,17,8.30
2009,05,23,04,18,8.30
2009,05,23,04,19,8.40
2009,05,23,04,20,8.40
2009,05,23,04,21,8.30
2009,05,23,04,22,8.30
2009,05,23,04,23,8.30
2009,05,23,04,24,8.30
2009,05,23,04,25,8.30
2009,05,23,04,26,8.30
2009,05,23,04,27,8.30
2009,05,23,04,28,8.40
2009,05,23,04,29,8.40
2009,05,23,04,30,8.40
2009,05,23,04,31,8.40
2009,05,23,04,32,8.40
2009,05,23,04,33,8.40
2009,05,23,04,34,8.30
2009,05,23,04,35,8.30
2009,05,23,04,36,8.30
2009,05,23,04,37,8.30
2009,05,23,04,38,8.30
2009,05,23,04,39,8.30
2009,05,23,04,40,8.30
2009,05,23,04,41,8.30
2009,05,23,04,42,8.30
2009,05,23,04,43,8.30
2009,05,23,04,44,8.30
2009,05,23,04,45,8.40
2009,05,23,04,46,8.40
2009,05,23,04,47,8.40
2009,05,23,04,48,8.40
2009,05,23,04,49,8.40
2009,05,23,04,50,8.40
2009,05,23,04,51,8.40
2009,05,23,04,52,8.40
2009,05,23,04,53,8.40
2009,05,23,04,54,8.40
2009,05,23,04,55,8.40
2009,05,23,04,56,8.40
2009,05,23,04,57,8.40
2009,05,23,04,58,8.30
2009,05,23,04,59,8.30
2009,05,23,05,00,8.20
2009,05,23,05,01,8.20
2009,05,23,05,02,8.20
2009,05,23,05,03,8.20
2009,05,23,05,04,8.20
2009,05,23,05,05,8.20
2009,05,23,05,06,8.20
2009,05,23,05,07,8.20
2009,05,23,05,08,8.20
2009,05,23,05,09,8.20
2009,05,23,05,10,8.20
2009,05,23,05,11,8.20
2009,05,23,05,12,8.20
2009,05,23,05,13,8.20
2009,05,23,05,14,8.20
2009,05,23,05,15,8.20
2009,05,23,05,16,8.20
2009,05,23,05,17,8.20
2009,05,23,05,18,8.20
2009,05,23,05,19,8.20
2009,05,23,05,20,8.20
2009,05,23,05,21,8.20
2009,05,23,05,22,8.20
2009,05,23,05,23,8.20
2009,05,23,05,24,8.20
2009,05,23,05,25,8.20
2009,05,23,05,26,8.20
2009,05,23,05,27,8.20
2009,05,23,05,28,8.20
2009,05,23,05,29,8.20
2009,05,23,05,30,8.20
2009,05,23,05,31,8.20
2009,05,23,05,32,8.20
2009,05,23,05,33,8.20
2009,05,23,05,34,8.20
2009,05,23,05,35,8.20
2009,05,23,05,36,8.20
2009,05,23,05,37,8.20
2009,05,23,05,38,8.20
2009,05,23,05,39,8.20
2009,05,23,05,40,8.20
2009,05,23,05,41,8.20
2009,05,23,05,42,8.20
2009,05,23,05,43,8.20
2009,05,23,05,44,8.20
2009,05,23,05,45,8.20
2009,05,23,05,46,8.30
2009,05,23,05,47,8.30
2009,05,23,05,48,8.20
2009,05,23,05,49,8.20
2009,05,23,05,50,8.20
2009,05,23,05,51,8.30
2009,05,23,05,52,8.30
2009,05,23,05,53,8.40
2009,05,23,05,54,8.40
2009,05,23,05,55,8.50
2009,05,23,05,56,8.50
2009,05,23,05,57,8.60
2009,05,23,05,58,8.70
2009,05,23,05,59,8.70
2009,05,23,06,00,8.70
2009,05,23,06,01,8.70
2009,05,23,06,02,8.80
2009,05,23,06,03,8.80
2009,05,23,06,04,8.80
2009,05,23,06,05,8.90
2009,05,23,06,06,8.90
2009,05,23,06,07,8.90
2009,05,23,06,08,8.90
2009,05,23,06,09,8.90
2009,05,23,06,10,8.90
2009,05,23,06,11,9.00
2009,05,23,06,12,9.00
2009,05,23,06,13,9.00
2009,05,23,06,14,9.00
2009,05,23,06,15,9.10
2009,05,23,06,16,9.10
2009,05,23,06,17,9.10
2009,05,23,06,18,9.10
2009,05,23,06,19,9.10
2009,05,23,06,20,9.10
2009,05,23,06,21,9.10
2009,05,23,06,22,9.20
2009,05,23,06,23,9.20
2009,05,23,06,24,9.20
2009,05,23,06,25,9.20
2009,05,23,06,26,9.20
2009,05,23,06,27,9.20
2009,05,23,06,28,9.20
2009,05,23,06,29,9.20
2009,05,23,06,30,9.30
2009,05,23,06,31,9.30
2009,05,23,06,32,9.40
2009,05,23,06,33,9.40
2009,05,23,06,34,9.40
2009,05,23,06,35,9.40
2009,05,23,06,36,9.50
2009,05,23,06,37,9.50
2009,05,23,06,38,9.50
2009,05,23,06,39,9.50
2009,05,23,06,40,9.60
2009,05,23,06,41,9.60
2009,05,23,06,42,9.60
2009,05,23,06,43,9.70
2009,05,23,06,44,9.70
2009,05,23,06,45,9.70
2009,05,23,06,46,9.70
2009,05,23,06,47,9.80
2009,05,23,06,48,9.80
2009,05,23,06,49,9.80
2009,05,23,06,50,9.90
2009,05,23,06,51,9.90
2009,05,23,06,52,9.90
2009,05,23,06,53,9.90
2009,05,23,06,54,9.90
2009,05,23,06,55,9.90
2009,05,23,06,56,9.90
2009,05,23,06,57,10.00
2009,05,23,06,58,10.10
2009,05,23,06,59,10.10
2009,05,23,07,00,10.20
2009,05,23,07,01,10.20
2009,05,23,07,02,10.20
2009,05,23,07,03,10.30
2009,05,23,07,04,10.30
2009,05,23,07,05,10.30
2009,05,23,07,06,10.30
2009,05,23,07,07,10.40
2009,05,23,07,08,10.40
2009,05,23,07,09,10.40
2009,05,23,07,10,10.40
2009,05,23,07,11,10.50
2009,05,23,07,12,10.60
2009,05,23,07,13,10.60
2009,05,23,07,14,10.60
2009,05,23,07,15,10.70
2009,05,23,07,16,10.80
2009,05,23,07,17,10.80
2009,05,23,07,18,10.90
2009,05,23,07,19,10.90
2009,05,23,07,20,10.90
2009,05,23,07,21,10.90
2009,05,23,07,22,11.00
2009,05,23,07,23,11.10
2009,05,23,07,24,11.10
2009,05,23,07,25,11.10
2009,05,23,07,26,11.10
2009,05,23,07,27,11.10
2009,05,23,07,28,11.10
2009,05,23,07,29,11.10
2009,05,23,07,30,11.10
2009,05,23,07,31,11.20
2009,05,23,07,32,11.30
2009,05,23,07,33,11.30
2009,05,23,07,34,11.30
2009,05,23,07,35,11.30
2009,05,23,07,36,11.40
2009,05,23,07,37,11.40
2009,05,23,07,38,11.40
2009,05,23,07,39,11.40
2009,05,23,07,40,11.40
2009,05,23,07,41,11.60
2009,05,23,07,42,11.60
2009,05,23,07,43,11.60
2009,05,23,07,44,11.60
2009,05,23,07,45,11.60
2009,05,23,07,46,11.60
2009,05,23,07,47,11.60
2009,05,23,07,48,11.60
2009,05,23,07,49,11.60
2009,05,23,07,50,11.70
2009,05,23,07,51,11.80
2009,05,23,07,52,11.80
2009,05,23,07,53,11.80
2009,05,23,07,54,11.80
2009,05,23,07,55,11.90
2009,05,23,07,56,11.90
2009,05,23,07,57,12.00
2009,05,23,07,58,12.00
2009,05,23,07,59,12.10
2009,05,23,08,00,12.10
2009,05,23,08,01,12.20
2009,05,23,08,02,12.20
2009,05,23,08,03,12.30
2009,05,23,08,04,12.30
2009,05,23,08,05,12.30
2009,05,23,08,06,12.40
2009,05,23,08,07,12.40
2009,05,23,08,08,12.40
2009,05,23,08,09,12.40
2009,05,23,08,10,12.30
2009,05,23,08,11,12.20
2009,05,23,08,12,12.10
2009,05,23,08,13,12.00
2009,05,23,08,14,12.00
2009,05,23,08,15,11.90
2009,05,23,08,16,11.90
2009,05,23,08,17,11.90
2009,05,23,08,18,12.00
2009,05,23,08,19,12.10
2009,05,23,08,20,12.10
2009,05,23,08,21,12.10
2009,05,23,08,22,12.00
2009,05,23,08,23,12.00
2009,05,23,08,24,12.00
2009,05,23,08,25,12.00
2009,05,23,08,26,12.00
2009,05,23,08,27,12.00
2009,05,23,08,28,12.00
2009,05,23,08,29,11.90
2009,05,23,08,30,11.90
2009,05,23,08,31,12.00
2009,05,23,08,32,12.00
2009,05,23,08,33,12.10
2009,05,23,08,34,12.20
2009,05,23,08,35,12.30
2009,05,23,08,36,12.40
2009,05,23,08,37,12.50
2009,05,23,08,38,12.50
2009,05,23,08,39,12.60
2009,05,23,08,40,12.70
2009,05,23,08,41,12.70
2009,05,23,08,42,12.80
2009,05,23,08,43,12.80
2009,05,23,08,44,12.80
2009,05,23,08,45,12.80
2009,05,23,08,46,12.80
2009,05,23,08,47,12.80
2009,05,23,08,48,12.80
2009,05,23,08,49,12.80
2009,05,23,08,50,12.90
2009,05,23,08,51,12.90
2009,05,23,08,52,12.80
2009,05,23,08,53,12.80
2009,05,23,08,54,12.80
2009,05,23,08,55,12.80
2009,05,23,08,56,12.80
2009,05,23,08,57,12.90
2009,05,23,08,58,12.90
2009,05,23,08,59,12.90
2009,05,23,09,00,12.90
2009,05,23,09,01,12.90
2009,05,23,09,02,12.90
2009,05,23,09,03,12.80
2009,05,23,09,04,12.80
2009,05,23,09,05,12.80
2009,05,23,09,06,12.80
2009,05,23,09,07,12.80
2009,05,23,09,08,12.70
2009,05,23,09,09,12.60
2009,05,23,09,10,12.60
2009,05,23,09,11,12.50
2009,05,23,09,12,12.50
2009,05,23,09,13,12.50
2009,05,23,09,14,12.50
2009,05,23,09,15,12.60
2009,05,23,09,16,12.60
2009,05,23,09,17,12.70
2009,05,23,09,18,12.80
2009,05,23,09,19,12.80
2009,05,23,09,20,12.80
2009,05,23,09,21,12.80
2009,05,23,09,22,12.90
2009,05,23,09,23,13.00
2009,05,23,09,24,13.00
2009,05,23,09,25,13.10
2009,05,23,09,26,13.20
2009,05,23,09,27,13.30
2009,05,23,09,28,13.30
2009,05,23,09,29,13.40
2009,05,23,09,30,13.40
2009,05,23,09,31,13.40
2009,05,23,09,32,13.30
2009,05,23,09,33,13.20
2009,05,23,09,34,13.10
2009,05,23,09,35,13.00
2009,05,23,09,36,12.90
2009,05,23,09,37,12.80
2009,05,23,09,38,12.80
2009,05,23,09,39,12.90
2009,05,23,09,40,13.00
2009,05,23,09,41,13.00
2009,05,23,09,42,13.00
2009,05,23,09,43,13.00
2009,05,23,09,44,13.10
2009,05,23,09,45,13.10
2009,05,23,09,46,13.10
2009,05,23,09,47,13.10
2009,05,23,09,48,13.10
2009,05,23,09,49,13.20
2009,05,23,09,50,13.30
2009,05,23,09,51,13.30
2009,05,23,09,52,13.30
2009,05,23,09,53,13.40
2009,05,23,09,54,13.50
2009,05,23,09,55,13.60
2009,05,23,09,56,13.70
2009,05,23,09,57,13.70
2009,05,23,09,58,13.80
2009,05,23,09,59,13.90
2009,05,23,10,00,13.90
2009,05,23,10,01,13.90
2009,05,23,10,02,14.00
2009,05,23,10,03,14.00
2009,05,23,10,04,14.10
2009,05,23,10,05,14.20
2009,05,23,10,06,14.20
2009,05,23,10,07,14.20
2009,05,23,10,08,14.30
2009,05,23,10,09,14.40
2009,05,23,10,10,14.40
2009,05,23,10,11,14.30
2009,05,23,10,12,14.20
2009,05,23,10,13,14.20
2009,05,23,10,14,14.10
2009,05,23,10,15,13.90
2009,05,23,10,16,13.80
2009,05,23,10,17,13.70
2009,05,23,10,18,13.70
2009,05,23,10,19,13.70
2009,05,23,10,20,13.70
2009,05,23,10,21,13.70
2009,05,23,10,22,13.70
2009,05,23,10,23,13.70
2009,05,23,10,24,13.70
2009,05,23,10,25,13.70
2009,05,23,10,26,13.70
2009,05,23,10,27,13.80
2009,05,23,10,28,13.80
2009,05,23,10,29,13.90
2009,05,23,10,30,13.90
2009,05,23,10,31,13.90
2009,05,23,10,32,13.90
2009,05,23,10,33,14.00
2009,05,23,10,34,14.10
2009,05,23,10,35,14.20
2009,05,23,10,36,14.40
2009,05,23,10,37,14.50
2009,05,23,10,38,14.50
2009,05,23,10,39,14.50
2009,05,23,10,40,14.50
2009,05,23,10,41,14.50
2009,05,23,10,42,14.50
2009,05,23,10,43,14.40
2009,05,23,10,44,14.40
2009,05,23,10,45,14.40
2009,05,23,10,46,14.30
2009,05,23,10,47,14.20
2009,05,23,10,48,14.30
2009,05,23,10,49,14.30
2009,05,23,10,50,14.30
2009,05,23,10,51,14.30
2009,05,23,10,52,14.30
2009,05,23,10,53,14.30
2009,05,23,10,54,14.30
2009,05,23,10,55,14.20
2009,05,23,10,56,14.30
2009,05,23,10,57,14.30
2009,05,23,10,58,14.40
2009,05,23,10,59,14.40
2009,05,23,11,00,14.50
2009,05,23,11,01,14.50
2009,05,23,11,02,14.60
2009,05,23,11,03,14.60
2009,05,23,11,04,14.70
2009,05,23,11,05,14.70
2009,05,23,11,06,14.80
2009,05,23,11,07,14.90
2009,05,23,11,08,14.90
2009,05,23,11,09,14.90
2009,05,23,11,10,15.00
2009,05,23,11,11,15.00
2009,05,23,11,12,14.90
2009,05,23,11,13,14.90
2009,05,23,11,14,14.90
2009,05,23,11,15,14.90
2009,05,23,11,16,14.90
2009,05,23,11,17,14.90
2009,05,23,11,18,14.90
2009,05,23,11,19,14.80
2009,05,23,11,20,14.70
2009,05,23,11,21,14.70
2009,05,23,11,22,14.60
2009,05,23,11,23,14.70
2009,05,23,11,24,14.60
2009,05,23,11,25,14.60
2009,05,23,11,26,14.60
2009,05,23,11,27,14.60
2009,05,23,11,28,14.60
2009,05,23,11,29,14.60
2009,05,23,11,30,14.70
2009,05,23,11,31,14.80
2009,05,23,11,32,14.80
2009,05,23,11,33,14.80
2009,05,23,11,34,14.80
2009,05,23,11,35,14.80
2009,05,23,11,36,14.80
2009,05,23,11,37,14.90
2009,05,23,11,38,14.90
2009,05,23,11,39,14.90
2009,05,23,11,40,14.90
2009,05,23,11,41,14.90
2009,05,23,11,42,14.80
2009,05,23,11,43,14.90
2009,05,23,11,44,14.90
2009,05,23,11,45,14.80
2009,05,23,11,46,14.90
2009,05,23,11,47,15.00
2009,05,23,11,48,15.10
2009,05,23,11,49,15.20
2009,05,23,11,50,15.20
2009,05,23,11,51,15.10
2009,05,23,11,52,15.10
2009,05,23,11,53,15.20
2009,05,23,11,54,15.30
2009,05,23,11,55,15.40
2009,05,23,11,56,15.50
2009,05,23,11,57,15.60
2009,05,23,11,58,15.60
2009,05,23,11,59,15.60
2009,05,23,12,00,15.60
2009,05,23,12,01,15.60
2009,05,23,12,02,15.70
2009,05,23,12,03,15.70
2009,05,23,12,04,15.80
2009,05,23,12,05,15.80
2009,05,23,12,06,15.80
2009,05,23,12,07,15.80
2009,05,23,12,08,15.80
2009,05,23,12,09,15.80
2009,05,23,12,10,15.80
2009,05,23,12,11,15.80
2009,05,23,12,12,15.80
2009,05,23,12,13,15.80
2009,05,23,12,14,15.80
2009,05,23,12,15,15.70
2009,05,23,12,16,15.70
2009,05,23,12,17,15.80
2009,05,23,12,18,15.90
2009,05,23,12,19,16.10
2009,05,23,12,20,15.90
2009,05,23,12,21,15.80
2009,05,23,12,22,15.80
2009,05,23,12,23,15.60
2009,05,23,12,24,15.60
2009,05,23,12,25,15.60
2009,05,23,12,26,15.60
2009,05,23,12,27,15.60
2009,05,23,12,28,15.60
2009,05,23,12,29,15.50
2009,05,23,12,30,15.50
2009,05,23,12,31,15.50
2009,05,23,12,32,15.50
2009,05,23,12,33,15.40
2009,05,23,12,34,15.40
2009,05,23,12,35,15.50
2009,05,23,12,36,15.60
2009,05,23,12,37,15.80
2009,05,23,12,38,15.90
2009,05,23,12,39,16.00
2009,05,23,12,40,16.10
2009,05,23,12,41,16.10
2009,05,23,12,42,16.10
2009,05,23,12,43,16.00
2009,05,23,12,44,15.90
2009,05,23,12,45,15.90
2009,05,23,12,46,15.90
2009,05,23,12,47,15.90
2009,05,23,12,48,15.90
2009,05,23,12,49,16.00
2009,05,23,12,50,16.10
2009,05,23,12,51,16.10
2009,05,23,12,52,16.10
2009,05,23,12,53,16.10
2009,05,23,12,54,16.10
2009,05,23,12,55,16.10
2009,05,23,12,56,16.10
2009,05,23,12,57,16.10
2009,05,23,12,58,16.10
2009,05,23,12,59,16.10
2009,05,23,13,00,16.10
2009,05,23,13,01,15.90
2009,05,23,13,02,15.90
2009,05,23,13,03,16.00
2009,05,23,13,04,15.90
2009,05,23,13,05,15.90
2009,05,23,13,06,15.90
2009,05,23,13,07,15.90
2009,05,23,13,08,16.10
2009,05,23,13,09,16.10
2009,05,23,13,10,16.10
2009,05,23,13,11,16.10
2009,05,23,13,12,16.10
2009,05,23,13,13,16.10
2009,05,23,13,14,16.10
2009,05,23,13,15,15.90
2009,05,23,13,16,15.80
2009,05,23,13,17,15.80
2009,05,23,13,18,15.90
2009,05,23,13,19,16.10
2009,05,23,13,20,16.20
2009,05,23,13,21,16.30
2009,05,23,13,22,16.40
2009,05,23,13,23,16.60
2009,05,23,13,24,16.70
2009,05,23,13,25,16.80
2009,05,23,13,26,16.90
2009,05,23,13,27,17.00
2009,05,23,13,28,17.10
2009,05,23,13,29,17.20
2009,05,23,13,30,17.10
2009,05,23,13,31,17.00
2009,05,23,13,32,17.00
2009,05,23,13,33,16.90
2009,05,23,13,34,17.00
2009,05,23,13,35,16.90
2009,05,23,13,36,16.90
2009,05,23,13,37,16.80
2009,05,23,13,38,16.70
2009,05,23,13,39,16.60
2009,05,23,13,40,16.60
2009,05,23,13,41,16.60
2009,05,23,13,42,16.60
2009,05,23,13,43,16.60
2009,05,23,13,44,16.60
2009,05,23,13,45,16.70
2009,05,23,13,46,16.80
2009,05,23,13,47,16.90
2009,05,23,13,48,17.00
2009,05,23,13,49,17.20
2009,05,23,13,50,17.20
2009,05,23,13,51,17.20
2009,05,23,13,52,17.20
2009,05,23,13,53,17.30
2009,05,23,13,54,17.30
2009,05,23,13,55,17.30
2009,05,23,13,56,17.30
2009,05,23,13,57,17.50
2009,05,23,13,58,17.50
2009,05,23,13,59,17.60
2009,05,23,14,00,17.60
2009,05,23,14,01,17.60
2009,05,23,14,02,17.50
2009,05,23,14,03,17.50
2009,05,23,14,04,17.60
2009,05,23,14,05,17.80
2009,05,23,14,06,17.90
2009,05,23,14,07,17.80
2009,05,23,14,08,17.80
2009,05,23,14,09,17.70
2009,05,23,14,10,17.60
2009,05,23,14,11,17.70
2009,05,23,14,12,17.80
2009,05,23,14,13,17.80
2009,05,23,14,14,17.70
2009,05,23,14,15,17.60
2009,05,23,14,16,17.50
2009,05,23,14,17,17.40
2009,05,23,14,18,17.30
2009,05,23,14,19,17.30
2009,05,23,14,20,17.30
2009,05,23,14,21,17.30
2009,05,23,14,22,17.40
2009,05,23,14,23,17.50
2009,05,23,14,24,17.60
2009,05,23,14,25,17.70
2009,05,23,14,26,17.70
2009,05,23,14,27,17.70
2009,05,23,14,28,17.80
2009,05,23,14,29,17.70
2009,05,23,14,30,17.70
2009,05,23,14,31,17.70
2009,05,23,14,32,17.70
2009,05,23,14,33,17.90
2009,05,23,14,34,18.00
2009,05,23,14,35,18.10
2009,05,23,14,36,18.20
2009,05,23,14,37,18.30
2009,05,23,14,38,18.30
2009,05,23,14,39,18.30
2009,05,23,14,40,18.30
2009,05,23,14,41,18.30
2009,05,23,14,42,18.40
2009,05,23,14,43,18.50
2009,05,23,14,44,18.40
2009,05,23,14,45,18.20
2009,05,23,14,46,18.00
2009,05,23,14,47,17.80
2009,05,23,14,48,17.70
2009,05,23,14,49,17.80
2009,05,23,14,50,17.80
2009,05,23,14,51,17.70
2009,05,23,14,52,17.70
2009,05,23,14,53,17.80
2009,05,23,14,54,17.70
2009,05,23,14,55,17.70
2009,05,23,14,56,17.70
2009,05,23,14,57,17.80
2009,05,23,14,58,17.80
2009,05,23,14,59,17.80
2009,05,23,15,00,17.80
2009,05,23,15,01,17.80
2009,05,23,15,02,17.80
2009,05,23,15,03,17.90
2009,05,23,15,04,17.90
2009,05,23,15,05,17.90
2009,05,23,15,06,17.90
2009,05,23,15,07,18.00
2009,05,23,15,08,18.20
2009,05,23,15,09,18.30
2009,05,23,15,10,18.30
2009,05,23,15,11,18.30
2009,05,23,15,12,18.20
2009,05,23,15,13,18.20
2009,05,23,15,14,18.20
2009,05,23,15,15,18.20
2009,05,23,15,16,18.20
2009,05,23,15,17,18.20
2009,05,23,15,18,18.20
2009,05,23,15,19,18.30
2009,05,23,15,20,18.30
2009,05,23,15,21,18.30
2009,05,23,15,22,18.20
2009,05,23,15,23,18.20
2009,05,23,15,24,18.20
2009,05,23,15,25,18.30
2009,05,23,15,26,18.30
2009,05,23,15,27,18.30
2009,05,23,15,28,18.20
2009,05,23,15,29,18.20
2009,05,23,15,30,18.10
2009,05,23,15,31,18.20
2009,05,23,15,32,18.20
2009,05,23,15,33,18.30
2009,05,23,15,34,18.30
2009,05,23,15,35,18.30
2009,05,23,15,36,18.50
2009,05,23,15,37,18.60
2009,05,23,15,38,18.70
2009,05,23,15,39,18.70
2009,05,23,15,40,18.70
2009,05,23,15,41,18.70
2009,05,23,15,42,18.70
2009,05,23,15,43,18.70
2009,05,23,15,44,18.70
2009,05,23,15,45,18.60
2009,05,23,15,46,18.60
2009,05,23,15,47,18.60
2009,05,23,15,48,18.60
2009,05,23,15,49,18.70
2009,05,23,15,50,18.70
2009,05,23,15,51,18.80
2009,05,23,15,52,18.90
2009,05,23,15,53,19.00
2009,05,23,15,54,19.10
2009,05,23,15,55,19.10
2009,05,23,15,56,19.00
2009,05,23,15,57,18.90
2009,05,23,15,58,18.90
2009,05,23,15,59,18.80
2009,05,23,16,00,18.70
2009,05,23,16,01,18.70
2009,05,23,16,02,18.80
2009,05,23,16,03,18.90
2009,05,23,16,04,19.00
2009,05,23,16,05,19.10
2009,05,23,16,06,19.20
2009,05,23,16,07,19.30
2009,05,23,16,08,19.40
2009,05,23,16,09,19.40
2009,05,23,16,10,19.50
2009,05,23,16,11,19.60
2009,05,23,16,12,19.60
2009,05,23,16,13,19.70
2009,05,23,16,14,19.60
2009,05,23,16,15,19.60
2009,05,23,16,16,19.50
2009,05,23,16,17,19.60
2009,05,23,16,18,19.60
2009,05,23,16,19,19.60
2009,05,23,16,20,19.50
2009,05,23,16,21,19.40
2009,05,23,16,22,19.50
2009,05,23,16,23,19.50
2009,05,23,16,24,19.50
2009,05,23,16,25,19.50
2009,05,23,16,26,19.60
2009,05,23,16,27,19.60
2009,05,23,16,28,19.60
2009,05,23,16,29,19.50
2009,05,23,16,30,19.60
2009,05,23,16,31,19.70
2009,05,23,16,32,19.70
2009,05,23,16,33,19.70
2009,05,23,16,34,19.70
2009,05,23,16,35,19.60
2009,05,23,16,36,19.60
2009,05,23,16,37,19.70
2009,05,23,16,38,19.80
2009,05,23,16,39,19.80
2009,05,23,16,40,19.80
2009,05,23,16,41,19.80
2009,05,23,16,42,19.70
2009,05,23,16,43,19.80
2009,05,23,16,44,19.90
2009,05,23,16,45,19.90
2009,05,23,16,46,19.90
2009,05,23,16,47,19.90
2009,05,23,16,48,19.90
2009,05,23,16,49,19.90
2009,05,23,16,50,19.90
2009,05,23,16,51,20.00
2009,05,23,16,52,20.10
2009,05,23,16,53,20.10
2009,05,23,16,54,20.10
2009,05,23,16,55,19.90
2009,05,23,16,56,19.90
2009,05,23,16,57,20.00
2009,05,23,16,58,20.10
2009,05,23,16,59,20.20
2009,05,23,17,00,20.10
2009,05,23,17,01,20.10
2009,05,23,17,02,20.00
2009,05,23,17,03,19.90
2009,05,23,17,04,19.90
2009,05,23,17,05,19.90
2009,05,23,17,06,19.90
2009,05,23,17,07,19.90
2009,05,23,17,08,19.90
2009,05,23,17,09,19.90
2009,05,23,17,10,20.10
2009,05,23,17,11,20.20
2009,05,23,17,12,20.30
2009,05,23,17,13,20.40
2009,05,23,17,14,20.40
2009,05,23,17,15,20.30
2009,05,23,17,16,20.20
2009,05,23,17,17,20.10
2009,05,23,17,18,20.10
2009,05,23,17,19,20.20
2009,05,23,17,20,20.30
2009,05,23,17,21,20.30
2009,05,23,17,22,20.30
2009,05,23,17,23,20.30
2009,05,23,17,24,20.20
2009,05,23,17,25,20.20
2009,05,23,17,26,20.30
2009,05,23,17,27,20.30
2009,05,23,17,28,20.30
2009,05,23,17,29,20.20
2009,05,23,17,30,20.20
2009,05,23,17,31,20.20
2009,05,23,17,32,20.20
2009,05,23,17,33,20.20
2009,05,23,17,34,20.30
2009,05,23,17,35,20.30